Zurück zum Katalog

SL-12 R/B

AUX MOTOR

AktivHEO
NORAD 19169·ROCKET BODY·🇷🇺 Russia

Gestartet May 21, 1988 von Baikonur Cosmodrome

Loading…

Nächste Überflüge (nächste 24 Stunden)

TLE

AktuellSource: Space-Track

Epoche: Sep 13, 2026, 03:50 UTC

1 19169U 88043G   26256.16001919  .00000023  00000-0  25068-3 0  9996
2 19169  65.4962 243.0348 5635058 305.8554  13.9326  4.27945363594652

Verfolge SL-12 R/B in Echtzeit mit AllMySat

Download on the App Store